Stations météo

réclame
Mon MeteoGroup
Leck, Allemagne (10022): Température de l'air & dewpoint: 07.12.2019 12:00:00 - 13.12.2019 12:00:00 (CET)Leck, Allemagne (10022): Température de l'air 5cm & Température de l'air -5cm: 07.12.2019 12:00:00 - 13.12.2019 12:00:00 (CET)Leck, Allemagne (10022): Température de l'air -20cm & Température de l'air -100cm: 07.12.2019 12:00:00 - 13.12.2019 12:00:00 (CET)Leck, Allemagne (10022): Vitesse du vent & gusts: 07.12.2019 12:00:00 - 13.12.2019 12:00:00 (CET)Leck, Allemagne (10022): Direction du vent: 07.12.2019 12:00:00 - 13.12.2019 12:00:00 (CET)Leck, Allemagne (10022): reduced air pressure: 07.12.2019 12:00:00 - 13.12.2019 12:00:00 (CET)Leck, Allemagne (10022): visibility: 07.12.2019 12:00:00 - 13.12.2019 12:00:00 (CET)Leck, Allemagne (10022): Ensoleillement: 07.12.2019 12:00:00 - 13.12.2019 12:00:00 (CET)Leck, Allemagne (10022): Quantités de précipitations: 07.12.2019 12:00:00 - 13.12.2019 12:00:00 (CET)
Date & Time tt [°C] td [°C] tt 5cm [°C] tt -5cm [°C] tt -20cm [°C] tt -100cm [°C] ff [km/h] ff [knt] fx [km/h] fx [knt] dd ppp [hPa] vv [km] sd [min] rr [mm]
13.12.2019 12:00:00 1,9 -0,5 1,9 0,6 3,2 7,9 19 10 35 19 E 980,7 20 42 0,0
13.12.2019 11:00:00 1,5 -0,6 1,5 0,6 3,3 7,9 25 14 34 18 ESE 980,6 18 60 0,0
13.12.2019 10:00:00 0,9 -1,1 0,4 0,5 3,3 7,9 24 13 34 18 ESE 981,0 20 22 0,0
13.12.2019 09:00:00 0,9 -1,2 -0,3 0,6 3,4 7,9 28 15 40 22 ESE 980,9 24 0 0,0
13.12.2019 08:00:00 1,1 -1,2 -0,1 0,6 3,4 7,9 26 14 38 20 ESE 981,2 26 0 0,0
13.12.2019 07:00:00 1,2 -1,0 0,0 0,6 3,5 7,9 27 15 42 23 ESE 981,7 28 0 0,0
13.12.2019 06:00:00 1,6 -0,8 0,3 0,6 3,6 7,9 28 15 45 24 ESE 982,1 31 0 0,0
13.12.2019 05:00:00 1,6 -0,6 0,4 0,6 3,7 7,9 28 15 41 22 ESE 982,9 29 0 0,0
13.12.2019 04:00:00 1,8 -0,3 0,6 0,7 3,8 7,9 29 15 44 24 SE 984,2 32 0 0,0
13.12.2019 03:00:00 1,9 0,1 0,7 0,7 3,9 7,9 29 16 43 23 SE 985,3 24 0 0,0
13.12.2019 02:00:00 1,6 0,1 0,3 0,7 4,1 7,9 24 13 37 20 SE 986,7 18 0 0,0
13.12.2019 01:00:00 1,6 0,4 0,4 0,7 4,2 7,9 22 12 32 17 SE 987,9 13 0 0,0
13.12.2019 00:00:00 1,5 0,5 0,4 0,8 4,4 7,9 19 11 31 17 SE 989,5 7 0 0,0
12.12.2019 23:00:00 1,8 0,7 0,5 1,0 4,6 7,9 19 10 31 17 SE 990,6 7 0 0,0
12.12.2019 22:00:00 2,2 0,8 0,5 1,3 4,8 7,9 18 10 29 16 SSE 991,7 10 0 0,0
12.12.2019 21:00:00 2,2 0,8 0,5 1,6 5,0 7,9 17 9 24 13 SSE 992,5 12 0 0,0
12.12.2019 20:00:00 3,1 1,4 1,3 2,2 5,1 7,9 16 9 26 14 S 993,4 15 0 0,0
12.12.2019 19:00:00 3,3 2,0 1,5 2,8 5,3 7,9 16 8 30 16 S 994,1 13 0 0,0
12.12.2019 18:00:00 4,2 2,7 3,2 3,5 5,4 7,9 18 10 27 15 S 994,7 17 0 0,0
12.12.2019 17:00:00 4,4 2,7 2,9 3,8 5,5 7,9 16 8 26 14 S 995,2 17 0 0,0
12.12.2019 16:00:00 5,0 3,2 3,4 4,6 5,5 7,9 17 9 35 19 SSW 995,2 23 9 0,0
12.12.2019 15:00:00 5,6 3,7 4,5 5,3 5,5 7,9 21 11 29 16 SSW 995,5 27 18 0,1
12.12.2019 14:00:00 4,9 2,7 4,2 5,2 5,5 7,9 23 12 33 18 SSW 996,0 25 0 0,6
12.12.2019 13:00:00 5,0 3,2 4,7 5,4 5,4 7,9 16 9 31 17 SSW 996,5 50 1 0,1
12.12.2019 12:00:00 5,9 4,6 5,6 5,4 5,3 7,9 21 11 34 18 SSW 996,7 11 0 0,0
12.12.2019 11:00:00 5,3 4,5 5,1 4,8 5,3 7,9 20 11 35 19 S 997,3 5 0 0,5
12.12.2019 10:00:00 4,9 4,0 4,4 4,5 5,3 8,0 21 11 32 17 S 997,8 4,7 0 0,0
12.12.2019 09:00:00 4,7 3,1 4,1 4,3 5,3 8,0 18 10 26 14 SSE 998,0 9 0 0,0
12.12.2019 08:00:00 4,7 2,9 4,0 4,3 5,3 8,0 14 8 24 13 S 998,3 10 0 0,0
12.12.2019 07:00:00 4,7 3,3 4,1 4,3 5,4 8,0 16 8 24 13 S 998,7 10 0 0,0
12.12.2019 06:00:00 4,9 3,2 4,1 4,2 5,4 8,0 14 8 26 14 SSW 998,9 12 0 0,0
12.12.2019 05:00:00 5,0 3,8 4,1 4,6 5,4 8,0 15 8 23 13 SSW 999,2 8 0 0,0
12.12.2019 04:00:00 4,9 4,3 4,2 4,5 5,4 8,0 10 5 14 7 S 999,6 4,3 0 0,0
12.12.2019 03:00:00 4,9 4,4 4,4 4,5 5,4 8,0 10 5 16 9 S 1000,3 4,4 0 0,0
12.12.2019 02:00:00 5,0 4,4 4,4 4,5 5,4 8,0 8 4 13 7 S 1000,6 4,9 0 0,0
12.12.2019 01:00:00 5,0 4,3 4,3 4,3 5,5 8,0 8 5 14 8 SSE 1001,0 5 0 0,0
12.12.2019 00:00:00 5,1 4,5 4,5 4,6 5,5 8,0 9 5 15 8 S 1001,7 4,5 0 0,0
11.12.2019 23:00:00 5,2 4,4 4,6 4,5 5,5 8,0 9 5 14 8 SSE 1001,9 6 0 0,0
11.12.2019 22:00:00 5,0 4,4 4,4 4,3 5,6 8,0 10 5 14 8 S 1002,4 6 0 0,0
11.12.2019 21:00:00 4,6 3,9 3,5 4,2 5,7 8,0 8 5 11 6 SSE 1002,6 6 0 0,0
11.12.2019 20:00:00 5,3 4,4 4,5 4,8 5,7 8,0 8 4 16 9 S 1003,1 11 0 0,0
11.12.2019 19:00:00 5,5 4,7 5,0 5,2 5,7 8,0 11 6 17 9 S 1003,4 12 0 0,0
11.12.2019 18:00:00 5,7 5,0 5,1 5,0 5,8 8,0 13 7 18 10 S 1003,5 15 0 0,0
11.12.2019 17:00:00 5,7 5,0 4,9 5,1 5,8 8,0 10 6 21 11 S 1003,6 15 0 0,0
11.12.2019 16:00:00 5,9 5,1 5,0 5,8 5,8 8,0 16 8 21 12 SSW 1003,9 16 0 0,0
11.12.2019 15:00:00 6,3 5,4 5,7 6,2 5,7 8,1 16 9 27 15 SSW 1004,0 15 0 0,0
11.12.2019 14:00:00 6,7 5,6 6,4 6,6 5,6 8,1 22 12 37 20 SSW 1004,4 16 0 0,0
11.12.2019 13:00:00 6,9 5,8 6,6 6,5 5,5 8,1 23 12 36 19 SSW 1004,7 17 0 0,0
11.12.2019 12:00:00 6,7 5,8 6,4 6,1 5,4 8,1 21 11 32 18 SSW 1005,1 16 0 0,0
11.12.2019 11:00:00 6,5 5,6 6,0 5,9 5,3 8,1 22 12 36 20 SSW 1005,5 19 0 0,0
11.12.2019 10:00:00 6,3 5,6 5,8 5,5 5,2 8,1 25 13 38 21 SSW 1005,5 16 0 0,3
11.12.2019 09:00:00 6,3 5,4 5,6 5,4 5,1 8,1 29 16 45 24 SSW 1005,2 19 0 0,0
11.12.2019 08:00:00 6,3 5,3 5,8 5,3 5,0 8,1 30 16 48 26 SSW 1004,9 20 0 0,0
11.12.2019 07:00:00 6,1 5,2 5,4 5,1 4,9 8,1 34 18 51 28 SSW 1004,7 15 0 0,7
11.12.2019 06:00:00 6,1 5,0 5,4 4,9 4,8 8,1 39 21 53 29 SSW 1004,6 10 0 1,5
11.12.2019 05:00:00 5,4 4,3 4,8 4,3 4,7 8,1 36 20 57 31 SSW 1004,2 8 0 0,9
11.12.2019 04:00:00 4,6 3,5 4,0 3,9 4,6 8,1 39 21 61 33 S 1004,3 13 0 0,1
11.12.2019 03:00:00 5,1 2,3 3,9 3,7 4,6 8,1 41 22 66 36 S 1004,8 5 0 0,0
11.12.2019 02:00:00 4,8 2,0 3,6 3,6 4,6 8,2 39 21 61 33 S 1005,5 14 0 0,0
11.12.2019 01:00:00 4,9 1,5 4,1 3,4 4,5 8,2 42 23 70 38 S 1006,1 28 0 0,0
11.12.2019 00:00:00 4,5 0,9 3,6 3,3 4,5 8,2 40 21 66 36 S 1006,9 31 0 0,0
10.12.2019 23:00:00 4,3 1,0 3,4 3,2 4,5 8,2 39 21 66 35 S 1007,8 31 0 0,1
10.12.2019 22:00:00 3,9 1,6 2,9 3,1 4,5 8,2 40 22 69 38 S 1008,7 13 0 0,2
10.12.2019 21:00:00 4,1 1,1 3,4 2,9 4,6 8,2 40 21 64 35 S 1010,4 20 0 0,0
10.12.2019 20:00:00 3,8 0,9 3,0 2,5 4,7 8,2 37 20 56 31 S 1011,6 23 0 0,0
10.12.2019 19:00:00 4,0 0,7 2,8 2,7 4,7 8,2 36 19 54 29 S 1012,8 31 0 0,0
10.12.2019 18:00:00 4,3 1,1 3,1 2,9 4,8 8,2 33 18 47 25 S 1013,9 34 0 0,0
10.12.2019 17:00:00 4,3 1,5 2,8 3,2 4,9 8,2 29 16 42 23 S 1015,1 34 0 0,0
10.12.2019 16:00:00 4,8 1,8 3,6 4,0 4,8 8,2 23 12 42 23 S 1016,4 29 0 0,0
10.12.2019 15:00:00 5,9 2,2 5,0 4,7 4,7 8,2 26 14 41 22 SSW 1017,5 29 17 0,0
10.12.2019 14:00:00 6,5 2,7 6,1 5,0 4,5 8,2 29 16 39 21 SSW 1018,4 29 1 0,0
10.12.2019 13:00:00 6,3 2,1 5,6 4,5 4,4 8,2 20 11 26 14 SSW 1019,0 39 5 0,0
10.12.2019 12:00:00 5,4 1,9 4,3 3,7 4,3 8,2 9 5 24 13 SSW 1019,7 42 0 0,0
10.12.2019 11:00:00 4,3 1,7 3,5 2,5 4,3 8,2 11 6 15 8 S 1019,8 32 32 0,0
10.12.2019 10:00:00 2,1 0,8 0,9 1,3 4,4 8,2 9 5 14 7 S 1019,9 29 0 0,0
10.12.2019 09:00:00 1,8 0,7 0,2 1,0 4,5 8,2 11 6 14 7 S 1019,6 31 0 0,0
10.12.2019 08:00:00 1,6 0,2 -0,6 1,6 4,6 8,2 10 6 12 7 S 1018,9 31 0 0,0
10.12.2019 07:00:00 2,4 0,9 1,4 2,1 4,6 8,3 4 2 14 8 ENE 1018,8 34 0 0,0
10.12.2019 06:00:00 2,8 0,3 0,2 1,8 4,7 8,3 7 4 14 8 SW 1017,9 37 0 0,0
10.12.2019 05:00:00 3,9 1,4 2,2 2,4 4,7 8,3 14 7 37 20 NW 1017,3 35 0 0,0
10.12.2019 04:00:00 4,2 0,4 2,2 1,5 4,8 8,3 21 11 38 21 NNW 1016,4 35 0 0,0
10.12.2019 03:00:00 3,8 0,3 1,7 2,0 5,0 8,3 15 8 34 19 NW 1014,8 33 0 0,0
10.12.2019 02:00:00 4,4 0,5 1,8 1,9 5,1 8,3 17 9 26 14 NW 1013,7 24 0 0,0
10.12.2019 01:00:00 4,3 1,0 1,9 1,9 5,3 8,3 18 10 26 14 NW 1012,6 25 0 0,0
10.12.2019 00:00:00 3,9 1,0 1,3 2,1 5,4 8,3 14 8 23 12 NW 1010,7 23 0 0,0
09.12.2019 23:00:00 4,3 1,2 2,1 2,5 5,6 8,3 17 9 33 18 NW 1008,8 27 0 0,0
09.12.2019 22:00:00 4,3 -0,2 2,3 3,3 5,7 8,3 23 13 41 22 NW 1007,4 50 0 0,8
09.12.2019 21:00:00 5,1 2,1 3,7 3,5 5,8 8,3 26 14 69 37 N 1006,2 25 0 0,1
09.12.2019 20:00:00 5,9 2,0 4,1 3,5 6,0 8,3 32 18 55 30 NW 1003,7 23 0 0,0
09.12.2019 19:00:00 5,9 0,9 4,1 3,8 6,1 8,3 37 20 52 28 NW 1002,1 29 0 0,0
09.12.2019 18:00:00 5,8 1,2 4,0 4,1 6,3 8,3 34 18 49 27 NW 1000,7 25 0 0,0
09.12.2019 17:00:00 6,4 2,2 4,4 4,7 6,4 8,3 25 13 43 23 NW 999,0 23 0 0,0
09.12.2019 16:00:00 6,3 2,7 4,6 5,5 6,4 8,3 19 10 34 19 WNW 997,4 20 0 0,0
09.12.2019 15:00:00 6,4 4,1 5,4 6,1 6,4 8,3 11 6 23 13 WNW 995,8 30 0 0,1
09.12.2019 14:00:00 6,0 4,2 5,4 6,2 6,4 8,3 17 9 38 21 NW 994,6 12 0 2,3
09.12.2019 13:00:00 6,9 5,2 6,2 6,2 6,3 8,3 27 15 40 22 SW 992,8 34 0 0,2
09.12.2019 12:00:00 6,3 4,8 5,6 5,9 6,3 8,3 27 15 45 24 SW 992,2 14 0 0,5
09.12.2019 11:00:00 6,5 5,0 5,9 5,9 6,3 8,3 33 18 56 31 SW 991,6 24 0 1,7
09.12.2019 10:00:00 6,4 5,1 5,8 5,9 6,3 8,3 43 23 67 36 SW 990,7 6 0 3,9
09.12.2019 09:00:00 6,4 5,4 5,8 5,7 6,3 8,3 32 18 56 30 SW 990,1 6 0 1,1
09.12.2019 08:00:00 6,5 5,1 5,6 5,5 6,3 8,2 31 17 52 28 SW 989,3 15 0 0,3
09.12.2019 07:00:00 6,6 4,9 5,7 5,5 6,3 8,2 39 21 51 27 SSW 988,7 19 0 1,9
09.12.2019 06:00:00 6,4 4,9 5,4 5,2 6,3 8,2 34 19 52 28 SSW 988,6 12 0 0,1
09.12.2019 05:00:00 6,1 4,3 4,9 5,0 6,3 8,2 31 17 53 29 SSW 988,4 21 0 0,0
09.12.2019 04:00:00 6,4 4,2 5,2 4,8 6,4 8,2 28 15 50 27 SSW 988,5 19 0 0,1
09.12.2019 03:00:00 6,9 3,5 5,6 4,9 6,5 8,2 26 14 38 20 SW 988,6 13 0 0,0
09.12.2019 02:00:00 6,6 3,6 5,2 4,9 6,6 8,2 26 14 38 20 SW 988,2 21 0 0,0
09.12.2019 01:00:00 6,1 3,8 5,1 5,4 6,6 8,2 33 18 50 27 SW 988,4 28 0 0,0
09.12.2019 00:00:00 7,1 3,7 5,5 5,1 6,7 8,2 22 12 41 22 SW 988,4 21 0 0,0
08.12.2019 23:00:00 7,3 3,9 5,9 5,3 6,8 8,2 24 13 41 22 SW 988,5 19 0 0,0
08.12.2019 22:00:00 7,5 3,6 6,0 5,5 6,9 8,2 31 17 54 29 SW 988,7 25 0 0,0
08.12.2019 21:00:00 7,2 3,3 5,5 5,5 7,0 8,2 35 19 52 28 WSW 988,9 30 0 0,3
08.12.2019 20:00:00 7,3 4,7 6,0 5,6 7,1 8,2 26 14 49 26 SW 989,1 17 0 0,0
08.12.2019 19:00:00 7,2 3,8 5,8 5,7 7,3 8,2 34 18 60 33 WSW 989,3 29 0 0,7
08.12.2019 18:00:00 8,1 4,3 7,0 6,1 7,4 8,2 30 16 50 27 WSW 989,5 22 0 0,0
08.12.2019 17:00:00 8,3 4,7 6,8 6,6 7,5 8,2 29 16 47 26 WSW 989,6 20 0 0,0
08.12.2019 16:00:00 8,4 5,2 6,7 7,3 7,5 8,2 30 16 56 30 WSW 989,4 21 1 0,0
08.12.2019 15:00:00 9,4 6,8 8,8 8,2 7,4 8,2 26 14 56 30 WSW 989,1 17 5 0,0
08.12.2019 14:00:00 9,2 7,6 8,8 8,5 7,3 8,2 30 16 53 28 SW 989,1 13 0 0,0
08.12.2019 13:00:00 9,3 8,0 8,9 8,3 7,2 8,2 39 21 70 38 SW 988,9 15 0 0,2
08.12.2019 12:00:00 8,3 7,9 8,1 7,8 7,2 8,2 47 25 69 38 SW 988,9 2,5 0 0,9
08.12.2019 11:00:00 8,0 7,5 7,8 7,5 7,1 8,2 45 25 76 41 SW 989,9 2,7 0 0,9
08.12.2019 10:00:00 8,4 7,0 7,7 7,3 7,1 8,2 45 25 69 37 SW 990,7 11 0 0,0
08.12.2019 09:00:00 7,4 6,5 7,1 7,1 7,1 8,2 51 28 74 40 SSW 991,6 4,3 0 1,0
08.12.2019 08:00:00 7,8 6,4 7,0 7,2 7,1 8,2 45 25 69 37 SSW 992,5 12 0 1,2
08.12.2019 07:00:00 8,3 6,6 7,3 7,2 7,0 8,2 44 24 70 38 SSW 994,0 12 0 0,1
08.12.2019 06:00:00 8,5 6,4 8,0 7,1 7,0 8,2 48 26 72 39 SSW 994,9 20 0 0,0
08.12.2019 05:00:00 8,0 6,2 7,4 6,9 7,0 8,2 42 23 60 33 SSW 996,6 18 0 0,0
08.12.2019 04:00:00 7,9 5,8 7,3 6,8 7,0 8,2 39 21 63 34 SSW 998,5 27 0 0,0
08.12.2019 03:00:00 7,9 5,8 7,2 6,8 7,0 8,2 40 21 54 29 SSW 1000,0 26 0 0,0
08.12.2019 02:00:00 7,9 5,6 7,2 6,9 7,0 8,1 34 18 48 26 SSW 1001,4 29 0 0,0
08.12.2019 01:00:00 8,1 6,9 7,4 7,0 6,9 8,1 34 18 49 27 SW 1002,8 8 0 0,0
08.12.2019 00:00:00 8,1 6,9 7,3 6,8 6,9 8,1 27 15 38 21 SW 1004,0 18 0 0,0
07.12.2019 23:00:00 8,1 6,8 7,2 6,6 6,9 8,1 22 12 32 18 SW 1005,0 20 0 0,0
07.12.2019 22:00:00 7,4 6,6 6,6 6,6 6,9 8,1 18 10 29 15 SW 1005,5 31 0 0,0
07.12.2019 21:00:00 7,5 6,8 6,8 6,3 7,0 8,1 20 11 33 18 SW 1005,8 2,4 0 0,0
07.12.2019 20:00:00 7,0 5,9 6,2 6,1 7,0 8,1 16 9 24 13 SW 1006,1 33 0 0,0
07.12.2019 19:00:00 7,3 4,1 5,9 6,2 7,1 8,1 12 6 27 15 W 1006,2 58 0 0,0
07.12.2019 18:00:00 7,2 5,1 6,1 6,5 7,1 8,1 19 10 29 16 W 1006,3 25 0 0,0
07.12.2019 17:00:00 7,3 4,7 6,0 6,5 7,2 8,1 18 10 37 20 W 1006,2 43 0 0,1
07.12.2019 16:00:00 7,8 4,6 6,2 6,9 7,2 8,1 21 12 35 19 W 1005,4 35 0 0,4
07.12.2019 15:00:00 8,2 5,4 7,3 7,4 7,2 8,1 18 10 45 24 W 1004,8 12 15 0,0
07.12.2019 14:00:00 8,2 4,8 7,3 7,5 7,2 8,1 21 11 35 19 W 1004,2 40 21 0,0
07.12.2019 13:00:00 8,5 5,4 7,9 7,8 7,1 8,1 21 12 33 18 W 1003,8 50 27 0,0
07.12.2019 12:00:00 8,3 5,7 7,6 7,4 7,1 8,1 23 12 44 24 W 1003,4 36 19 0,0

tt = Température de l'air
td = dewpoint
tt 5cm = Température de l'air 5cm
tt -5cm = Température de l'air -5cm
tt -20cm = Température de l'air -20cm
tt -100cm = Température de l'air -100cm
ff = Vitesse du vent
fx = gusts
dd = Direction du vent
ppp = reduced air pressure
vv = visibility
sd = Ensoleillement
rr = Quantités de précipitations

stations d'obs. à proximité